sat.trackr.live / text

‹ back to catalog

LEMUR-2-HOTSPUR-TOM

NORAD 66786 · 2025-276EA

PAYLOAD ACTIVE UNKNOWN

§ Identity

Operator
Country
US
Launch date
2025-11-28
Launch site
AFWTR
Launch vehicle
Mass (kg)
RCS (m²)

Purposes: earth_obs

External: N2YO · Heavens-Above · Gunter

§ Orbital elements

Epoch: 2026-09-19T23:46:57.222048Z

Period
96.01 min
Inclination
97.5127°
Eccentricity
0.0016253
Mean motion
14.99795715 rev/d
Perigee alt
556.2 km
Apogee alt
578.8 km
Semi-major
6,945.7 km
B*
2.8131e-4
RAAN
330.3634°
Arg perigee
169.2784°
Mean anomaly
190.8790°
Rev number
4,433

§ Raw data

LEMUR-2-HOTSPUR-TOM1 66786U 25276EA  26262.99094007  .00003431  00000+0  28131-3 0  99992 66786  97.5127 330.3634 0016253 169.2784 190.8790 14.99795715 44337

JSON: /api/v1/satellites/66786 · /tle

For live sub-satellite position, see the globe view (requires WebGL).

§ Visibility from observer

Set your observer location to see the next 7 days of passes ≥ 10°. The values pass through the URL so the page stays shareable.

No JS? Fill the form by hand. The geolocation button needs JavaScript.